Milwaukee, WI

2:54 AM CST on January 17, 2017 (GMT -0600)
Timmerman

Weather History for KMWC - November, 2012

Change the Weather History Date:

Saturday, November 10, 2012

  Actual Average Record
Temperature  
Mean Temperature 55 °F -  
Max Temperature 64 °F 46 °F 65 °F (1949)
Min Temperature 46 °F 33 °F 15 °F (1957)
Degree Days  
Heating Degree Days 10    
Growing Degree Days 5 (Base 50)    
Moisture  
Dew Point 46 °F    
Average Humidity 73    
Maximum Humidity 87    
Minimum Humidity 49    
Precipitation  
Precipitation 0.00 in - - ()
Sea Level Pressure  
Sea Level Pressure 29.91 in    
Wind  
Wind Speed 8 mph (SE)    
Max Wind Speed 21 mph    
Max Gust Speed 32 mph    
Visibility 7 miles    
Events      
Averages and records for this station are not official NWS values.
T = Trace of Precipitation, MM = Missing Value Source: NWS Daily Summary

Daily Weather History Graph

Daily Weather History Graph

Search for Another Location

Airport or City:

Trip Planner

Search our weather history database for the weather conditions in past years. The results will help you decide how hot, cold, wet, or windy it might be!

Date:

Astronomy

Nov. 10, 2012 Rise Set
Actual Time 6:39 AM CST 4:32 PM CST
Civil Twilight 6:08 AM CST 5:02 PM CST
Nautical Twilight 5:34 AM CST 5:37 PM CST
Astronomical Twilight 5:01 AM CST 6:10 PM CST
Moon 2:38 AM CST (11/10) 2:23 PM CST (11/10)
Length of Visible Light 10h 54m
Length of Day
9h 53m
Waning Crescent, 14% of the Moon is Illuminated
Nov 10
Waning Crescent
Nov 13
New
Nov 20
First Quarter
Nov 28
Full
Dec 6
Last Quarter

Hourly Weather History & Observations

Time (CST) Temp. Windchill Dew Point Humidity Pressure Visibility Wind Dir Wind Speed Gust Speed Precip Events Conditions
12:15 AM 46.4 °F 42.9 °F 42.8 °F 87% 30.04 in 5.0 mi NE 6.9 mph - N/A   Overcast
12:35 AM 46.4 °F 43.5 °F 42.8 °F 87% 30.03 in 5.0 mi NE 5.8 mph - N/A   Overcast
12:55 AM 46.4 °F 44.3 °F 42.8 °F 87% 30.03 in 5.0 mi NE 4.6 mph - N/A   Light Drizzle
1:15 AM 46.4 °F 45.2 °F 42.8 °F 87% 30.03 in 5.0 mi ENE 3.5 mph - N/A   Overcast
1:35 AM 46.4 °F 43.5 °F 42.8 °F 87% 30.02 in 4.0 mi ENE 5.8 mph - N/A   Overcast
1:55 AM 46.4 °F - 42.8 °F 87% 30.02 in 4.0 mi Calm Calm - N/A   Overcast
2:15 AM 46.4 °F 43.5 °F 42.8 °F 87% 30.02 in 4.0 mi NE 5.8 mph - N/A   Overcast
2:35 AM 46.4 °F 44.3 °F 42.8 °F 87% 30.02 in 4.0 mi NE 4.6 mph - N/A   Overcast
2:55 AM 46.4 °F 45.2 °F 42.8 °F 87% 30.01 in 4.0 mi NE 3.5 mph - N/A   Overcast
3:15 AM 46.4 °F 42.9 °F 42.8 °F 87% 30.01 in 5.0 mi NE 6.9 mph - N/A   Overcast
3:35 AM 48.2 °F - 42.8 °F 82% 30.01 in 5.0 mi East 4.6 mph - N/A   Haze
3:55 AM 48.2 °F - 44.6 °F 87% 30.01 in 5.0 mi ENE 3.5 mph - N/A   Overcast
4:15 AM 48.2 °F - 44.6 °F 87% 29.99 in 5.0 mi East 6.9 mph - N/A   Overcast
4:35 AM 48.2 °F - 44.6 °F 87% 29.98 in 4.0 mi East 5.8 mph - N/A   Overcast
4:55 AM 48.2 °F - 44.6 °F 87% 29.98 in 4.0 mi East 3.5 mph - N/A   Mostly Cloudy
5:15 AM 48.2 °F - 44.6 °F 87% 29.96 in 4.0 mi East 5.8 mph - N/A   Overcast
5:35 AM 50.0 °F - 44.6 °F 82% 29.98 in 5.0 mi SE 5.8 mph - N/A   Overcast
6:45 AM 50.0 °F - 46.4 °F 87% 29.96 in 4.0 mi East 5.8 mph - N/A   Overcast
7:45 AM 51.8 °F - 46.4 °F 82% 29.96 in 4.0 mi ESE 3.5 mph - N/A   Haze
8:45 AM 51.8 °F - 46.4 °F 82% 29.96 in 5.0 mi SSE 8.1 mph - N/A   Haze
9:45 AM 55.4 °F - 48.2 °F 77% 29.92 in 7.0 mi SE 8.1 mph - N/A   Mostly Cloudy
10:45 AM 59.0 °F - 50.0 °F 72% 29.90 in 10.0 mi South 10.4 mph - N/A   Overcast
12:45 PM 62.6 °F - 48.2 °F 59% 29.84 in 10.0 mi South 11.5 mph - N/A   Clear
1:45 PM 64.4 °F - 50.0 °F 59% 29.82 in 10.0 mi South 9.2 mph 16.1 mph N/A   Clear
2:45 PM 64.4 °F - 50.0 °F 59% 29.80 in 10.0 mi South 13.8 mph 23.0 mph N/A   Clear
3:50 PM 64.4 °F - 51.8 °F 64% 29.83 in 10.0 mi South 17.3 mph 32.2 mph N/A   Scattered Clouds
4:50 PM 62.6 °F - 51.8 °F 68% 29.84 in 10.0 mi SSW 13.8 mph 23.0 mph N/A   Mostly Cloudy
5:45 PM 62.6 °F - 53.6 °F 72% 29.85 in 10.0 mi South 11.5 mph 17.3 mph N/A   Mostly Cloudy
6:45 PM 64.4 °F - 53.6 °F 68% 29.83 in 10.0 mi South 16.1 mph 24.2 mph N/A   Scattered Clouds
7:45 PM 64.4 °F - 51.8 °F 64% 29.83 in 10.0 mi South 13.8 mph 23.0 mph N/A   Clear
8:15 PM 62.6 °F - 48.2 °F 59% 29.82 in 10.0 mi South 17.3 mph 26.5 mph N/A   Clear
8:35 PM 62.6 °F - 46.4 °F 55% 29.82 in 10.0 mi SSW 16.1 mph 25.3 mph N/A   Clear
8:45 PM 64.4 °F - 46.4 °F 52% 29.83 in 10.0 mi SSW 18.4 mph 26.5 mph N/A   Clear
9:15 PM 64.4 °F - 44.6 °F 49% 29.83 in 10.0 mi SSW 18.4 mph 25.3 mph N/A   Clear
9:35 PM 62.6 °F - 44.6 °F 52% 29.82 in 10.0 mi SSW 18.4 mph 25.3 mph N/A   Clear
10:15 PM 62.6 °F - 44.6 °F 52% 29.82 in 10.0 mi SSW 12.7 mph - N/A   Clear
10:35 PM 60.8 °F - 44.6 °F 55% 29.81 in 10.0 mi South 18.4 mph 23.0 mph N/A   Clear
10:55 PM 62.6 °F - 46.4 °F 55% 29.81 in 10.0 mi SSW 16.1 mph 25.3 mph N/A   Clear
11:15 PM 62.6 °F - 46.4 °F 55% 29.81 in 10.0 mi SSW 20.7 mph 32.2 mph N/A   Clear
11:35 PM 62.6 °F - 46.4 °F 55% 29.81 in 10.0 mi SSW 18.4 mph 31.1 mph N/A   Clear
11:55 PM 62.6 °F - 46.4 °F 55% 29.82 in 10.0 mi SSW 16.1 mph 32.2 mph N/A   Clear